Weather History for Worcester, MA

Change the Weather History Date:

Friday, June 15, 2012

  Actual Average Record
Temperature  
Mean Temperature 64 °F 65 °F  
Max Temperature 72 °F 74 °F 94 °F (1988)
Min Temperature 56 °F 56 °F 41 °F (1978)
Degree Days  
Heating Degree Days 1 3  
Month to date heating degree days 64 60  
Since 1 June heating degree days 64 60  
Since 1 July heating degree days 5279 6694  
Cooling Degree Days 0 3  
Month to date cooling degree days 4 30  
Year to date cooling degree days 65 52  
Since 1 June cooling degree days 4 30  
Growing Degree Days 14 (Base 50)    
Moisture  
Dew Point 46 °F    
Average Humidity 52    
Maximum Humidity 67    
Minimum Humidity 37    
Precipitation  
Precipitation 0.00 in 0.14 in 1.87 in (1903)
Month to date precipitation 4.06 2.28  
Year to date precipitation 17.29 21.51  
Snow  
Snow 0.00 in 0.00 in 0.00 in (2001)
Month to date snowfall 0.0 0.0  
Since 1 June snowfall 0.0 0.0  
Since 1 July snowfall 39.7 64.1  
Snow Depth 0.00 in    
Sea Level Pressure  
Sea Level Pressure 30.31 in    
Wind  
Wind Speed 7 mph (NE)    
Max Wind Speed 15 mph    
Max Gust Speed 21 mph    
Visibility 10 miles    
Events      
T = Trace of Precipitation, MM = Missing Value Source: NWS Daily Summary

Daily Weather History Graph

Daily Weather History Graph

Search for Another Location

Airport:

Trip Planner

Search our weather history database for the weather conditions in past years. The results will help you decide how hot, cold, wet, or windy it might be!

Date:

Astronomy

Jun. 15, 2012 Rise Set
Actual Time 5:10 AM EDT 8:25 PM EDT
Civil Twilight 4:35 AM EDT 9:00 PM EDT
Nautical Twilight 3:50 AM EDT 9:45 PM EDT
Astronomical Twilight 2:56 AM EDT 10:39 PM EDT
Moon 2:25 AM EDT (6/15) 5:00 PM EDT (6/15)
Length of Visible Light 16h 24m
Length of Day
15h 15m
Waning Crescent, 14% of the Moon is Illuminated
Jun 15
Waning Crescent
Jun 19
New
Jun 26
First Quarter
Jul 3
Full
Jul 10
Last Quarter

Hourly Weather History & Observations

Time (EDT) Temp. Dew Point Humidity Pressure Visibility Wind Dir Wind Speed Gust Speed Precip Events Conditions
12:54 AM 63.0 °F 43.0 °F 48% 30.27 in 10.0 mi NE 3.5 mph - N/A   Scattered Clouds
1:54 AM 62.1 °F 41.0 °F 46% 30.28 in 10.0 mi North 3.5 mph - N/A   Clear
2:54 AM 61.0 °F 42.1 °F 50% 30.28 in 10.0 mi North 3.5 mph - N/A   Clear
3:54 AM 59.0 °F 42.1 °F 53% 30.27 in 10.0 mi North 4.6 mph - N/A   Clear
4:54 AM 59.0 °F 43.0 °F 55% 30.28 in 10.0 mi North 8.1 mph - N/A   Clear
5:54 AM 57.0 °F 45.0 °F 64% 30.28 in 10.0 mi North 8.1 mph - N/A   Clear
6:54 AM 59.0 °F 45.0 °F 60% 30.30 in 10.0 mi NNE 6.9 mph 17.3 mph N/A   Clear
7:54 AM 61.0 °F 45.0 °F 56% 30.32 in 10.0 mi NNE 8.1 mph - N/A   Clear
8:54 AM 64.0 °F 45.0 °F 50% 30.32 in 10.0 mi NNE 10.4 mph - N/A   Clear
9:54 AM 66.9 °F 46.0 °F 47% 30.34 in 10.0 mi North 8.1 mph - N/A   Clear
10:54 AM 69.1 °F 43.0 °F 39% 30.33 in 10.0 mi NNE 8.1 mph 18.4 mph N/A   Clear
11:54 AM 69.1 °F 44.1 °F 40% 30.33 in 10.0 mi NE 8.1 mph 17.3 mph N/A   Clear
12:54 PM 72.0 °F 45.0 °F 38% 30.33 in 10.0 mi ENE 10.4 mph - N/A   Clear
1:54 PM 72.0 °F 46.9 °F 41% 30.32 in 10.0 mi NNE 11.5 mph - N/A   Clear
2:54 PM 71.1 °F 48.9 °F 45% 30.32 in 10.0 mi ENE 11.5 mph 20.7 mph N/A   Mostly Cloudy
3:54 PM 70.0 °F 48.9 °F 47% 30.31 in 10.0 mi East 10.4 mph - N/A   Scattered Clouds
4:54 PM 70.0 °F 48.0 °F 46% 30.31 in 10.0 mi East 8.1 mph - N/A   Scattered Clouds
5:54 PM 70.0 °F 46.0 °F 42% 30.31 in 10.0 mi East 6.9 mph - N/A   Clear
6:54 PM 68.0 °F 50.0 °F 52% 30.31 in 10.0 mi ESE 4.6 mph - N/A   Clear
7:54 PM 66.0 °F 48.9 °F 54% 30.32 in 10.0 mi SE 4.6 mph - N/A   Clear
8:54 PM 64.0 °F 48.0 °F 56% 30.32 in 10.0 mi ESE 5.8 mph - N/A   Clear
9:54 PM 63.0 °F 48.0 °F 58% 30.33 in 10.0 mi ESE 4.6 mph - N/A   Clear
10:54 PM 62.1 °F 46.9 °F 58% 30.33 in 10.0 mi Calm Calm - N/A   Clear
11:54 PM 57.0 °F 46.9 °F 69% 30.33 in 10.0 mi Calm Calm - N/A   Clear